Tracking 29892 objects as of 21-Nov-2024
HD Live streaming from Space Station
objects crossing your sky now

SL-14 DEB

Track SL-14 DEB now!
10-day predictions


NORAD ID: 26026
Int'l Code: 1991-068AM
Perigee: 1,341.3 km
Apogee: 1,490.1 km
Inclination: 82.5 °
Period: 114.0 minutes
Semi major axis: 7786 km
RCS: 0.0402 m2 (small)
Launch date: September 28, 1991
Source: Commonwealth of Independent States (former USSR) (CIS)
Launch site: PLESETSK MISSILE AND SPACE COMPLEX (PKMTR)

Note: This is SATELLITE DEBRIS
Your satellite tracking list
Your tracking list is empty




NASA's NSSDC Master Catalog

Two Line Element Set (TLE):
1 26026U 91068AM  24325.91511336  .00000197  00000-0  10074-2 0  9996
2 26026  82.5091 303.8006 0095521   4.8642  22.9021 12.63490692164615
Source of the keplerian elements: AFSPC